Date String (YYYY-MM-DD hh:mm:ss) UTC,Instrument flags,absolute air pressure of the measurement (hPa),sample flow rate (lpm),inlet stack bypass flow (lpm),air temperature of the measurement (°C),ambient temperature measured by the external sensor (°C),aerosol sample conditioner tube jacket temperature (°C),OPC LED temperature (°C),internal box temperature (°C),relative humidity of the measurement (%),span deviation,mass concentration of particles derived from Lorenz-Mie calculation of OPC scattering (μg/m³),mass concentration of particles derived from Lorenz-Mie calculation of OPC scattering (μg/m³),mass concentration of particles derived from Lorenz-Mie calculation of OPC scattering (μg/m³)
DateTimeUTC,F1_M11,P_M11,Q1_M11,Q2_M11,T1_M11,T2_M11,T3_M11,T4_M11,T5_M11,U1_M11,ZSPAN_M11,X2_M11,X0_M11,X1_M11
2023-09-15 01:00:00,SystemResetWarning,0835.0,5.00,000.00,028.1,026.5,000.0,036.6,029.7,33.0,0000.0,0002.13,0003.85,0001.45
2023-09-15 01:01:00,SystemResetWarning,0835.0,5.00,000.00,028.1,026.5,000.0,036.6,029.7,33.1,0000.0,0002.11,0003.79,0001.46
2023-09-15 01:02:00,SystemResetWarning,0835.1,4.99,000.00,028.1,026.5,000.0,036.6,029.7,33.1,0000.0,0002.03,0003.64,0001.46
2023-09-15 01:03:00,SystemResetWarning,0835.1,4.99,000.00,028.0,026.5,000.0,036.6,029.7,33.1,0000.0,0002.01,0004.02,0001.45
2023-09-15 01:04:00,SystemResetWarning,0835.1,5.01,000.00,028.0,026.5,000.0,036.6,029.6,33.2,0000.0,0002.04,0004.59,0001.45
2023-09-15 01:05:00,SystemResetWarning,0835.2,5.00,000.00,028.0,026.5,000.0,036.6,029.6,33.2,0000.0,0002.03,0004.56,0001.46
2023-09-15 01:06:00,SystemResetWarning,0835.2,5.00,000.00,028.0,026.4,000.0,036.6,029.6,33.3,0000.0,0002.04,0004.58,0001.46
2023-09-15 01:07:00,SystemResetWarning,0835.2,5.00,000.00,028.0,026.4,000.0,036.6,029.6,33.3,0000.0,0002.03,0004.53,0001.45
2023-09-15 01:08:00,SystemResetWarning,0835.1,5.00,000.00,028.0,026.4,000.0,036.6,029.6,33.4,0000.0,0002.00,0004.40,0001.45
2023-09-15 01:09:00,SystemResetWarning,0835.2,4.98,000.00,028.0,026.4,000.0,036.5,029.6,33.4,0000.0,0001.95,0003.96,0001.45
2023-09-15 01:10:00,SystemResetWarning,0835.2,4.99,000.00,028.0,026.4,000.0,036.5,029.6,33.4,0000.0,0001.96,0003.93,0001.46
2023-09-15 01:11:00,SystemResetWarning,0835.2,5.00,000.00,027.9,026.4,000.0,036.5,029.6,33.4,0000.0,0001.94,0003.81,0001.46
2023-09-15 01:12:00,SystemResetWarning,0835.2,5.01,000.00,027.9,026.4,000.0,036.5,029.6,33.4,0000.0,0001.90,0003.75,0001.45
2023-09-15 01:13:00,SystemResetWarning,0835.2,5.00,000.00,027.9,026.4,000.0,036.5,029.6,33.4,0000.0,0001.94,0004.01,0001.45
2023-09-15 01:14:00,SystemResetWarning,0835.2,4.99,000.00,027.9,026.4,000.0,036.5,029.6,33.4,0000.0,0001.98,0003.67,0001.47
2023-09-15 01:15:00,SystemResetWarning,0835.3,4.99,000.00,027.9,026.4,000.0,036.5,029.6,33.5,0000.0,0001.97,0003.20,0001.47
2023-09-15 01:16:00,SystemResetWarning,0835.2,5.00,000.00,027.9,026.4,000.0,036.5,029.6,33.5,0000.0,0002.02,0003.33,0001.48
2023-09-15 01:17:00,SystemResetWarning,0835.3,5.01,000.00,027.9,026.3,000.0,036.5,029.6,33.5,0000.0,0002.04,0003.40,0001.50
2023-09-15 01:18:00,SystemResetWarning,0835.3,5.01,000.00,027.9,026.3,000.0,036.5,029.6,33.6,0000.0,0002.07,0003.46,0001.52
2023-09-15 01:19:00,SystemResetWarning,0835.3,5.00,000.00,027.9,026.4,000.0,036.5,029.6,33.7,0000.0,0002.12,0003.54,0001.56
2023-09-15 01:20:00,SystemResetWarning,0835.3,4.99,000.00,027.9,026.4,000.0,036.4,029.6,33.8,0000.0,0002.16,0003.64,0001.58
2023-09-15 01:21:00,SystemResetWarning,0835.2,4.99,000.00,027.9,026.4,000.0,036.4,029.6,33.8,0000.0,0002.21,0003.78,0001.60
2023-09-15 01:22:00,SystemResetWarning,0835.2,5.01,000.00,027.9,026.4,000.0,036.4,029.6,33.9,0000.0,0002.26,0003.90,0001.62
2023-09-15 01:23:00,SystemResetWarning,0835.2,5.01,000.00,027.9,026.4,000.0,036.4,029.5,33.9,0000.0,0002.34,0004.09,0001.66
2023-09-15 01:24:00,SystemResetWarning,0835.2,4.99,000.00,027.9,026.4,000.0,036.4,029.5,33.9,0000.0,0002.38,0004.03,0001.69
2023-09-15 01:25:00,SystemResetWarning,0835.2,4.99,000.00,027.9,026.4,000.0,036.4,029.5,34.0,0000.0,0002.35,0003.93,0001.72
2023-09-15 01:26:00,SystemResetWarning,0835.2,5.00,000.00,027.9,026.4,000.0,036.4,029.5,34.0,0000.0,0002.42,0004.05,0001.75
2023-09-15 01:27:00,SystemResetWarning,0835.2,5.01,000.00,027.9,026.4,000.0,036.4,029.5,34.0,0000.0,0002.45,0004.08,0001.78
2023-09-15 01:28:00,SystemResetWarning,0835.2,5.01,000.00,027.9,026.4,000.0,036.4,029.5,34.1,0000.0,0002.49,0004.10,0001.82
2023-09-15 01:29:00,SystemResetWarning,0835.2,4.99,000.00,027.9,026.4,000.0,036.4,029.5,34.1,0000.0,0002.50,0004.11,0001.84
2023-09-15 01:30:00,SystemResetWarning,0835.2,4.99,000.00,027.8,026.3,000.0,036.4,029.5,34.1,0000.0,0002.54,0004.15,0001.86
2023-09-15 01:31:00,SystemResetWarning,0835.2,4.99,000.00,027.8,026.3,000.0,036.4,029.5,34.1,0000.0,0002.55,0004.12,0001.88
2023-09-15 01:32:00,SystemResetWarning,0835.2,5.00,000.00,027.8,026.3,000.0,036.4,029.5,34.1,0000.0,0002.53,0004.04,0001.89
2023-09-15 01:33:00,SystemResetWarning,0835.2,5.01,000.00,027.8,026.3,000.0,036.4,029.4,34.1,0000.0,0002.52,0003.96,0001.91
2023-09-15 01:34:00,SystemResetWarning,0835.2,5.01,000.00,027.8,026.3,000.0,036.4,029.4,34.2,0000.0,0002.52,0003.91,0001.93
2023-09-15 01:35:00,SystemResetWarning,0835.2,4.99,000.00,027.8,026.3,000.0,036.4,029.4,34.2,0000.0,0002.54,0003.85,0001.94
2023-09-15 01:36:00,SystemResetWarning,0835.2,4.99,000.00,027.8,026.3,000.0,036.3,029.4,34.2,0000.0,0002.53,0003.81,0001.94
2023-09-15 01:37:00,SystemResetWarning,0835.2,5.00,000.00,027.8,026.3,000.0,036.3,029.4,34.3,0000.0,0002.51,0003.71,0001.94
2023-09-15 01:38:00,SystemResetWarning,0835.2,5.00,000.00,027.8,026.3,000.0,036.3,029.4,34.3,0000.0,0002.47,0003.73,0001.94
2023-09-15 01:39:00,SystemResetWarning,0835.2,5.00,000.00,027.7,026.2,000.0,036.3,029.4,34.4,0000.0,0002.46,0003.63,0001.92
2023-09-15 01:40:00,SystemResetWarning,0835.3,5.00,000.00,027.7,026.2,000.0,036.3,029.4,34.4,0000.0,0002.46,0003.62,0001.92
2023-09-15 01:41:00,SystemResetWarning,0835.3,5.00,000.00,027.7,026.2,000.0,036.3,029.4,34.5,0000.0,0002.45,0003.73,0001.90
2023-09-15 01:42:00,SystemResetWarning,0835.3,5.00,000.00,027.7,026.2,000.0,036.3,029.4,34.5,0000.0,0002.48,0003.90,0001.89
2023-09-15 01:43:00,SystemResetWarning,0835.3,5.00,000.00,027.7,026.2,000.0,036.3,029.4,34.5,0000.0,0002.51,0003.98,0001.88
2023-09-15 01:44:00,SystemResetWarning,0835.2,5.00,000.00,027.7,026.2,000.0,036.3,029.4,34.5,0000.0,0002.51,0004.00,0001.86
2023-09-15 01:45:00,SystemResetWarning,0835.2,4.99,000.00,027.7,026.2,000.0,036.3,029.4,34.4,0000.0,0002.48,0004.02,0001.82
2023-09-15 01:46:00,SystemResetWarning,0835.2,5.01,000.00,027.7,026.2,000.0,036.3,029.3,34.5,0000.0,0002.46,0004.09,0001.78
2023-09-15 01:47:00,SystemResetWarning,0835.2,5.01,000.00,027.7,026.2,000.0,036.3,029.3,34.5,0000.0,0002.46,0004.13,0001.77
2023-09-15 01:48:00,SystemResetWarning,0835.3,5.01,000.00,027.7,026.2,000.0,036.2,029.3,34.5,0000.0,0002.42,0004.08,0001.73
2023-09-15 01:49:00,SystemResetWarning,0835.3,4.99,000.00,027.7,026.2,000.0,036.2,029.3,34.6,0000.0,0002.47,0004.10,0001.71
2023-09-15 01:50:00,SystemResetWarning,0835.3,4.99,000.00,027.7,026.2,000.0,036.2,029.3,34.6,0000.0,0002.42,0004.06,0001.68
2023-09-15 01:51:00,SystemResetWarning,0835.3,4.99,000.00,027.7,026.2,000.0,036.2,029.3,34.6,0000.0,0002.38,0004.01,0001.65
2023-09-15 01:52:00,SystemResetWarning,0835.3,5.00,000.00,027.7,026.2,000.0,036.2,029.3,34.6,0000.0,0002.32,0004.23,0001.63
2023-09-15 01:53:00,SystemResetWarning,0835.4,5.01,000.00,027.7,026.1,000.0,036.2,029.3,34.5,0000.0,0002.27,0004.26,0001.61
2023-09-15 01:54:00,SystemResetWarning,0835.3,5.00,000.00,027.7,026.1,000.0,036.2,029.3,34.6,0000.0,0002.29,0004.29,0001.61
2023-09-15 01:55:00,SystemResetWarning,0835.3,5.00,000.00,027.7,026.1,000.0,036.2,029.3,34.6,0000.0,0002.34,0004.46,0001.63
2023-09-15 01:56:00,SystemResetWarning,0835.4,5.00,000.00,027.7,026.1,000.0,036.2,029.3,34.6,0000.0,0002.37,0004.51,0001.63
2023-09-15 01:57:00,SystemResetWarning,0835.4,4.98,000.00,027.7,026.1,000.0,036.2,029.3,34.6,0000.0,0002.36,0004.42,0001.65
2023-09-15 01:58:00,SystemResetWarning,0835.4,5.02,000.00,027.6,026.1,000.0,036.2,029.3,34.5,0000.0,0002.41,0004.50,0001.67
2023-09-15 01:59:00,SystemResetWarning,0835.4,5.00,000.00,027.6,026.1,000.0,036.2,029.3,34.6,0000.0,0002.45,0004.53,0001.71
